Weather in San Crist贸bal

Dominican Republic     18掳24鈥58鈥砃   70掳06鈥28鈥砏
temp.,
掳C
wind,
m/s
gust,
m/s
humid.,
%
clouds,
%
prec.,
mm/h
press.,
hPa
HPBL,
m
21 june, mon
mon2123:00+25nne248872 0.7 1020144
02:00+24n239027 2.8 101872
05:00+24n22912 1.1 101868
08:00+25n23854 1.1 1019245
11:00+29ene346893 0.9 10191030
14:00+29se4469100 1.6 1018838
17:00+26se2585100 4.5 1017295
20:00+25nne1287100 6.4 101870
22 june, tue
tue2223:00+25n2390100 1.6 1019119
02:00+24n2393100 3.8 101799
05:00+23nnw249499 2.0 1017126
08:00+24n2491100 2.8 1019209
11:00+28ene357398 1.3 1019990
14:00+29se336999 1.9 1017582
17:00+28se1274100 1.6 1016431
20:00+25ne2587100 3.9 1017118
23 june, wed
wed2323:00+23n2594100 2.3 1019154
02:00+22nnw2397100 6.5 101797
05:00+22nnw249484 1.6 1017122
08:00+25n358715 1.7 1018323
11:00+29ne35595 0.1 10181406
14:00+30ene356062 0.3 10161308
17:00+27ese357877 1.3 1015292
20:00+25ne128454 1.8 1017101
24 june, thu
thu2423:00+23nnw359298 0.1 1018164
02:00+22nnw359357 0.1 1016125
05:00+22nnw359353 0.1 1016140
08:00+25n368478 0.1 1016432
11:00+29ne3558100 0.0 10161423
14:00+28se236790 0.4 1015463
17:00+27se347556 0.9 1014337
20:00+25ene018036 1.4 101581
25 june, fri
fri2523:00+23n249020 0.0 1016102
02:00+23nnw239222 0.1 101593
05:00+22nnw239394 0.0 1015106
08:00+25n358379 0.0 1015345
11:00+29ene3461100 0.2 10151301
14:00+30sse2259100 0.8 1013884
17:00+27se347599 1.0 1012331
20:00+25ese128488 3.3 1014100